CW1227 Weather Reports


Display with metric or nautical units.
time (UTC)temp
F
wind
direction
speed
MPH
gust
MPH
rain 1hr
in
rain 24hr
in
rain mn
in
humidity
%
barometer
mb
20180819014739 66 340 3.0 4.0 0.00 0.01 0.00 95 1006.8
20180819013738 66 337 1.0 3.0 0.00 0.01 0.00 95 1006.7
20180819011738 66 329 1.0 2.0 0.00 0.01 0.00 95 1006.6
20180819010740 66 329 0.0 3.0 0.00 0.01 0.00 95 1006.5
20180819005739 66 329 1.0 3.0 0.00 0.01 0.00 95 1006.4
20180819004738 66 360 1.0 3.0 0.00 0.01 0.00 95 1006.4
20180819003738 66 355 1.0 3.0 0.00 0.01 0.00 95 1006.2
20180819002740 67 341 0.0 3.0 0.00 0.01 0.00 95 1006.0
20180819001738 67 337 2.0 3.0 0.00 0.01 0.00 95 1005.7
20180819000738 67 355 1.0 4.0 0.00 0.01 0.00 95 1005.7
20180818234739 68 5 3.0 4.0 0.00 0.01 0.00 95 1005.3
20180818232738 68 344 1.0 3.0 0.00 0.01 0.00 96 1005.0
20180818230738 68 342 2.0 6.0 0.00 0.01 0.00 96 1004.8
20180818220741 71 313 0.0 3.0 0.00 0.01 0.00 98 1004.0
20180818215739 70 313 1.0 3.0 0.00 0.01 0.00 97 1003.9
20180818212738 71 322 1.0 3.0 0.00 0.01 0.00 98 1003.5
20180818211743 70 304 1.0 2.0 0.00 0.01 0.00 97 1003.4
20180818210738 71 189 0.0 2.0 0.00 0.01 0.00 99 1003.5
20180818204739 69 150 0.0 1.0 0.00 0.01 0.00 99 1003.7
20180818202740 68 150 0.0 1.0 0.00 0.01 0.00 98 1004.0
20180818201739 68 150 0.0 1.0 0.00 0.01 0.00 98 1004.1
20180818200739 69 147 0.0 2.0 0.00 0.01 0.00 97 1003.8
20180818195742 69 149 1.0 2.0 0.00 0.01 0.00 98 1003.6
20180818192739 70 308 0.0 2.0 0.00 0.01 0.00 98 1003.8
20180818191738 70 331 1.0 2.0 0.00 0.01 0.00 98 1003.7
20180818185739 70 331 0.0 5.0 0.00 0.01 0.00 97 1004.0
20180818182738 73 313 0.0 5.0 0.00 0.01 0.00 89 1003.4
20180818175739 76 307 1.0 7.0 0.00 0.01 0.00 85 1003.6
20180818174739 77 322 1.0 6.0 0.00 0.01 0.00 85 1003.5
20180818172739 75 355 1.0 4.0 0.00 0.01 0.00 88 1003.6
20180818171739 74 312 3.0 4.0 0.00 0.01 0.00 88 1003.6
20180818170739 74 341 2.0 5.0 0.00 0.01 0.00 87 1003.8
20180818165739 78 313 1.0 5.0 0.00 0.01 0.00 81 1003.8
20180818164739 80 19 0.0 4.0 0.00 0.01 0.00 83 1003.5
20180818163738 80 183 2.0 4.0 0.00 0.01 0.00 84 1003.6
20180818162738 79 172 2.0 3.0 0.00 0.01 0.00 83 1003.7
20180818161738 78 121 2.0 3.0 0.00 0.01 0.00 86 1003.9
20180818155738 77 215 2.0 7.0 0.00 0.01 0.00 83 1003.9
20180818154738 77 190 3.0 7.0 0.00 0.01 0.00 86 1003.9
20180818153738 76 211 1.0 7.0 0.00 0.01 0.00 87 1004.0
20180818151739 75 185 1.0 4.0 0.00 0.01 0.00 90 1004.3
20180818150739 75 196 0.0 5.0 0.00 0.01 0.00 91 1004.3
20180818143738 74 197 1.0 4.0 0.00 0.01 0.00 94 1004.3
20180818141738 74 184 0.0 2.0 0.00 0.01 0.00 96 1004.3
20180818140738 73 130 0.0 3.0 0.00 0.01 0.00 95 1004.3
20180818134739 73 76 2.0 3.0 0.00 0.01 0.00 95 1004.4
20180818132738 73 302 0.0 3.0 0.00 0.01 0.00 97 1004.3
20180818124738 72 206 0.0 3.0 0.00 0.01 0.00 98 1004.6
20180818123739 72 223 0.0 2.0 0.00 0.01 0.00 99 1004.6
20180818122738 71 231 2.0 2.0 0.00 0.01 0.00 99 1004.7
20180818120741 71 254 0.0 1.0 0.00 0.01 0.00 99 1004.7
20180818062735 70 185 0.0 4.0 0.00 0.01 0.00 99 1005.8
20180818060735 70 138 2.0 5.0 0.00 0.01 0.00 99 1006.1
20180818055736 69 141 0.0 4.0 0.00 0.01 0.00 99 1006.3
20180818054736 69 126 0.0 2.0 0.00 0.01 0.00 99 1006.3
20180818050735 70 129 0.0 3.0 0.01 0.01 0.00 98 1006.7
20180818045735 70 132 1.0 3.0 0.01 0.01 0.00 98 1007.0
20180818044735 70 142 0.0 3.0 0.01 0.01 0.00 98 1007.2
20180818042845 70 158 1.0 3.0 0.01 0.01 0.00 98 1007.7
20180818041735 71 355 2.0 3.0 0.01 0.01 0.00 98 1007.6
20180818041140 71 278 1.0 3.0 0.01 0.01 0.00 98 1007.9
20180818033735 72 133 3.0 3.0 0.00 0.00 0.00 98 1008.2
20180818031736 72 104 1.0 3.0 0.00 0.00 0.00 98 1008.1
20180818023735 72 161 0.0 2.0 0.00 0.01 0.00 98 1008.1
20180818020839 72 326 1.0 3.0 0.00 0.01 0.00 98 1008.2